CZ-4 DEB, 26126

Orbit data source: Space-Track

CZ-4 DEB, 26126 is space debris in SSO originally from a launch on Thu, 14 Oct 1999 UTC launched from the Taiyaun Space Center, China (TSC). Debris objects in space refer to the collection of defunct objects orbiting the Earth. Examples of debris include non-operational satellites, rocket bodies, and fragments generated from explosions, collisions, or faulty payload assembly.

Loading next visibility...
Identifier
26126, 1999-057N
Orbit
SSO
Country
Flag of CNCN / PRC
Related business
Manufacturer
Unknown
Mission
Spacecraft
Bus & Motor
Unknown
Mass
Unknown
Launch date (UTC)
1999-10-14 (26 years ago)
Launch vehicle
Unknown
Launch site
Taiyaun Space Center, China (TSC)
Object type
Payload
Rocket body
Debris
Shape & HBR
Unknown shape, 0.1 m
Radar Cross Section
Small (<0.1 m²)

Expand to show TLE details & history
Last TLE update: 12 hours ago

TLE from 12 hours ago
0 CZ-4 DEB
1 26126U 99057N   25289.05457779  .00002176  00000-0  60834-3 0  9997
2 26126  98.6653 334.0969 0095237 190.8710 244.0185 14.44593565340504
Epoch: 2025-10-16T01:18Z
TLE epoch observation values (Epoch: 2025-10-16T01:18:35.521Z)
Latitude
71.85572°
Longitude
-97.92495°
Altitude
785.954 km
Speed
7.451 km/s
True Right ascension
20h 26m 10s
True Declination
71° 45' 15"
Sunlit
Object was in daylight at epoch
Visualization orbit readout
Latitude
Unknown
Longitude
Unknown
Altitude
Unknown
Speed
Unknown
Apparent Right ascension
Unknown
Apparent Declination
Unknown
Sunlit
N/A
Visualization observer readout
Local Sidereal Time
07:57:56
Azimuth
Unknown
Elevation
Unknown
Doppler factor
Unknown
Orbital elements
Apogee altitude
808.28 km
Perigee altitude
672.689 km
Semi-major axis
7,118.622 km
Eccentricity
0.00952
Inclination
98.6653°
RAAN
334.0969°
Arg. of periapsis
190.871°
True anomaly
243.0426°
Mean anomaly
244.0185°
Eccentric anomaly
243.53004°
Mean motion
3.61368 °/min
Orbital period
99.62 mins
BSTAR
0.00060834
Loading maneuver chart data...
Computing Atmospheric mass density...
Loading historical data...
Loading historical data...
Loading historical data...
Loading historical data...
Loading historical data...
Loading historical data...
Loading historical data...

Documentation

Showing up to 5 results
|